Weather in Bazhino

Russia / Perm Krai     59°07′33″N   55°24′03″E
temp.,
°C
wind,
m/s
gust,
m/s
humid.,
%
clouds,
%
prec.,
mm/h
press.,
hPa
HPBL,
m
8 august, mon
mon823:00+22ssw0160100 0.0 101911
02:00+21wnw1162100 0.0 101911
05:00+20w116397 0.0 102016
08:00+20nw1168100 0.0 102011
11:00+25wsw125313 0.0 1020360
14:00+29wnw223752 0.0 10202488
17:00+28wsw123669 0.0 10192199
20:00+22n116483 0.0 101928
9 august, tue
tue923:00+18wnw22725 0.0 102020
02:00+17nnw118521 0.0 102011
05:00+18nne118365 0.1 102027
08:00+18n129583 2.1 1021106
11:00+24n226640 2.1 1020556
14:00+27n215098 0.0 10201543
17:00+26n3255100 0.0 1019932
20:00+21ne228593 0.4 101926
10 august, wed
wed1023:00+18nne2593100 1.3 1020113
02:00+15nne2297100 3.9 102047
05:00+15ne1193100 4.4 101911
08:00+18ne119145 0.1 1019106
11:00+24sse126277 0.1 1018572
14:00+26s2352100 0.0 10171315
17:00+26ssw3455100 0.1 10161548
20:00+19s4894100 2.3 1017218
11 august, thu
thu1123:00+16sw2797100 2.4 1015142
02:00+15sw2597100 0.0 1015103
05:00+16wsw2598100 0.1 1014148
08:00+16sw0098100 0.7 1013119
11:00+16wnw2499100 5.4 1012346
14:00+16nw4787100 1.9 1013712
17:00+18nw467262 2.1 10131006
20:00+14nw4986100 0.1 1014621
12 august, fri
fri1223:00+12wnw31098100 1.5 1014472
02:00+12wnw31097100 0.3 1014343
05:00+12wnw3119495 0.3 1014326
08:00+12wnw31293100 0.1 1015458
11:00+13w3899100 1.6 1014494
14:00+14w41199100 2.0 1013622
17:00+15w399859 3.4 1013545
20:00+16wnw41094100 1.3 1012469